This demonstration page uses our WeatherBlox Daily Observations layout. Learn more.

Left ArrowRight Arrow

Hourly Observations for August 1, 2018

Temp ( °F °C ) Dew Point ( °F °C ) Humidity (%) Winds ( mph kmh ) Pressure ( in mb ) Visibility ( mi km ) Precip ( " mm )
12:51 am 00:51 Cloudy 76 24.4 68 20 77 77 SE 6 9 30.08 1019 10 16 0.00 0.00
1:51 am 01:51 Cloudy 76 24.4 70 21.1 82 82 ESE 6 9 30.07 1018 10 16 0.00 0.00
2:51 am 02:51 Cloudy 76 24.4 70 21.1 82 82 ESE 8 13 30.06 1018 10 16 0.00 0.03
3:51 am 03:51 Cloudy 76 24.4 71 21.7 85 85 E 3 6 30.06 1018 10 16 0.00 0.00
4:34 am 04:34 Cloudy with Drizzle 73 23 72 22 94 94 NE 5 7 30.06 1018 8 13 0.00 0.00
4:51 am 04:51 Cloudy 74 23.3 71 21.7 91 91 NNE 5 7 30.06 1018 8 13 0.03 0.76
5:51 am 05:51 Cloudy with Light Rain 74 23.3 72 22.2 94 94 Calm 30.06 1018 5 8 0.01 0.25
6:31 am 06:31 Cloudy with Mist and Fog 74 23.3 72 22.2 94 94 Calm 30.06 1018 4 6 0.00 0.03
6:43 am 06:43 Cloudy with Light Rain 74 23.3 72 22.2 94 94 NNE 5 7 30.06 1018 4 6 0.00 0.03
6:51 am 06:51 Cloudy with Light Rain 74 23.3 72 22.2 94 94 NNE 3 6 30.05 1018 4 6 0.00 0.03
7:38 am 07:38 Cloudy 75 24 73 23 94 94 ENE 5 7 30.06 1018 8 13 0.00 0.00
7:51 am 07:51 Cloudy 75 23.9 74 23.3 96 96 E 3 6 30.05 1018 8 13 0.03 0.76
8:05 am 08:05 Cloudy 76 24.4 74 23.3 94 94 VRB 3 6 30.06 1018 10 16 0.00 0.00
8:51 am 08:51 Cloudy 78 25.6 75 23.9 90 90 SSE 6 9 30.04 1017 10 16 0.00 0.00
9:51 am 09:51 Cloudy with Light Rain 79 26.1 75 23.9 88 88 SSE 8 13 30.03 1017 10 16 0.02 0.51
10:04 am 10:04 Cloudy with Light Rain 79 26.1 75 23.9 88 88 SSE 9 15 30.03 1017 7 11 0.00 0.03
10:51 am 10:51 Cloudy 80 26.7 76 24.4 87 87 S 10 17 30.02 1017 8 13 0.00 0.03
10:58 am 10:58 Mostly Cloudy 81 27 75 24 84 84 S 9 15 30.03 1017 10 16 0.00 0.00
11:51 am 11:51 Mostly Cloudy 84 28.9 76 24.4 77 77 S 10 17 30.01 1016 10 16 0.00 0.00
12:51 pm 12:51 Mostly Cloudy 87 30.6 75 23.9 67 67 S 13 20 29.98 1015 10 16 0.00 0.00
1:51 pm 13:51 Mostly Cloudy 86 30 73 22.8 65 65 SSW 13 20 29.98 1015 10 16 0.00 0.00
2:07 pm 14:07 Cloudy with Heavy Rain 79 26.1 75 23.9 88 88 W 18 30 30.00 1016 3 4 0.08 2.03
2:26 pm 14:26 Cloudy with Mist and Fog 81 27 75 24 84 84 SSW 8 13 30.00 1016 5 8 0.00 0.00
2:51 pm 14:51 Cloudy 84 28.9 76 24.4 77 77 SSW 12 19 29.97 1015 10 16 0.20 5.08
3:13 pm 15:13 Sunny 89 31.7 76 24.4 65 65 SW 15 24 29.97 1015 10 16 0.00 0.00
3:51 pm 15:51 Mostly Sunny 91 32.8 74 23.3 57 57 SW 17 28 29.96 1015 10 16 0.00 0.00
4:51 pm 16:51 Mostly Cloudy 89 31.7 73 22.8 59 59 SW 12 19 29.96 1015 10 16 0.00 0.00
5:51 pm 17:51 Mostly Sunny 90 32.2 71 21.7 54 54 SSW 13 20 29.97 1015 10 16 0.00 0.00
6:51 pm 18:51 Partly Cloudy 87 30.6 70 21.1 57 57 SSW 16 26 29.97 1015 10 16 0.00 0.00
7:51 pm 19:51 Mostly Sunny 88 31.1 72 22.2 59 59 SSW 15 24 29.98 1015 10 16 0.00 0.00
8:51 pm 20:51 Mostly Clear 84 28.9 72 22.2 67 67 S 15 24 29.99 1016 10 16 0.00 0.00
9:51 pm 21:51 Clear 83 28.3 73 22.8 72 72 SSW 12 19 30.01 1016 10 16 0.00 0.00
10:51 pm 22:51 Clear 82 27.8 73 22.8 74 74 SSW 8 13 30.02 1017 10 16 0.00 0.00
11:51 pm 23:51 Clear 82 27.8 73 22.8 74 74 SW 13 20 30.04 1017 10 16 0.00 0.00

Powered by Vaisala Xweather